Flag for Micronesia Weather past 2 weeks in Tofol, Kosrae, Micronesia

Now
82 °F

Overcast.


Feels Like: 89 °F
Forecast: 80 / 83 °F
Wind: 3 mph from East

Location: Pohnpei


UV Index: 3 (Moderate)

Visibility: 15 mi


Pressure: 29.81 "Hg

Humidity: 85%

Dew point: 77 °F

Location of TofolLocation

Historic Weather in Tofol

°F

Tofol temperature yesterday

Maximum temperature yesterday: 91 °F (at 1:50 PM)
Minimum temperature yesterday: 75 °F (at 4:53 AM)
Average temperature yesterday: 81 °F

Past Weeks' High & Low Weather Summary

 TemperatureHumidityPressure
High91 °F (Apr 16, 1:50 PM)98% (Apr 13, 3:55 AM)29.92 "Hg (Apr 13, 3:55 AM)
Low74 °F (Apr 15, 3:54 AM)62% (Apr 16, 11:54 AM)29.72 "Hg (Apr 3, 2:55 PM)
Average81 °F85%29.82 "Hg
* Reported Apr 2 4:50 PM — Apr 17 4:54 PM, Tofol, Weather by CustomWeather, © 2014

Note: Actual official high and low records may vary slightly from our data, if they occured in-between our weather recording intervals... More about our weather records

Advertising

Historic Weather Conditions — Data for Previous 24 hours

 ConditionsComfort  
Time TempWeatherWind HumidityBarometerVisibility
4:54 PM
Apr 17
83 °FMore clouds than sun.3 mph82%29.80 "Hg15 mi
3:52 PM83 °FMostly cloudy.3 mph84%29.79 "Hg15 mi
2:51 PM83 °FMostly cloudy.5 mph82%29.79 "Hg15 mi
1:53 PM83 °FMostly cloudy.3 mph82%29.82 "Hg15 mi
12:52 PM84 °FMostly cloudy.7 mph75%29.85 "Hg15 mi
11:53 AM80 °FMostly cloudy.3 mph85%29.88 "Hg15 mi
10:54 AM78 °FMostly cloudy.5 mph90%29.90 "Hg15 mi
9:52 AM77 °FMostly cloudy.2 mph91%29.90 "Hg15 mi
7:55 AM74 °FSprinkles. Mostly cloudy.3 mph95%29.89 "Hg11 mi
6:50 AM75 °FMostly cloudy.5 mph96%29.85 "Hg12 mi
5:55 AM76 °FOvercast.9 mph95%29.84 "Hg15 mi
4:55 AM78 °FOvercast.7 mph92%29.83 "Hg15 mi
3:53 AM78 °FMostly cloudy.3 mph93%29.82 "Hg15 mi
2:54 AM77 °FMostly cloudy.2 mph94%29.82 "Hg15 mi
1:52 AM76 °FOvercast.3 mph94%29.83 "Hg15 mi
12:50 AM77 °FOvercast.2 mph91%29.85 "Hg15 mi
11:50 PM
Apr 16
77 °FMostly cloudy.5 mph92%29.87 "Hg15 mi
10:50 PM77 °FMostly cloudy.3 mph91%29.88 "Hg15 mi
9:50 PM78 °FPassing clouds.3 mph93%29.88 "Hg15 mi
8:50 PM78 °FPassing clouds.3 mph94%29.85 "Hg15 mi
7:50 PM80 °FPassing clouds.3 mph92%29.85 "Hg15 mi
6:55 PM81 °FMostly cloudy.3 mph92%29.85 "Hg15 mi
Weather by CustomWeather, © 2014

See weather overview